GFSMA_sfc_dewp_009.txt.gz
Dewpoint
40 41 41 42 41 41 42 41 41 41 41 42 41 42 43 45 48 51 54 56 57 62 65 68 68 69 70 69 67 68 67 66 65 64 65 64 63 63 63 62 61 60 60
39 41 41 40 40 40 41 40 40 41 39 41 39 41 42 43 46 46 47 50 54 56 59 62 65 67 68 69 68 69 69 68 67 66 64 64 64 63 64 62 61 60 60
38 40 40 39 40 40 40 39 38 40 38 39 39 39 40 43 42 38 41 45 50 48 50 52 57 62 66 69 69 69 69 69 68 67 65 65 65 64 64 63 61 60 60
37 38 39 38 40 40 40 39 39 39 37 38 38 36 39 41 38 37 42 46 41 43 43 48 52 56 58 64 69 69 69 69 69 68 66 65 65 65 64 63 61 61 60
37 36 38 37 39 39 39 39 37 39 37 37 38 35 37 39 38 33 36 42 41 42 40 46 49 51 54 59 64 69 69 69 69 69 67 66 66 66 65 64 62 61 60
36 34 35 36 38 38 36 38 35 37 37 37 38 37 37 38 36 35 34 34 39 36 42 46 41 44 53 55 58 64 69 68 69 69 68 67 66 65 65 65 63 61 61
34 32 34 35 37 36 35 36 36 36 35 38 38 34 36 36 33 34 33 38 37 34 41 42 42 44 49 55 54 57 62 69 68 68 67 65 66 66 65 65 64 63 61
33 31 32 33 35 35 33 33 34 35 37 37 35 35 29 31 33 31 38 38 35 36 38 39 44 41 45 48 50 52 55 61 69 68 68 66 65 66 65 65 64 64 62
33 32 31 32 32 33 34 33 34 34 33 35 36 35 31 29 31 32 31 34 33 36 38 41 41 42 42 44 50 50 52 56 63 69 68 67 65 65 66 65 64 64 63
30 30 31 31 31 33 33 33 35 34 35 34 35 37 38 36 34 32 31 32 35 37 37 39 39 40 42 43 49 52 52 54 56 67 68 67 66 66 66 66 64 64 64
30 31 30 30 30 32 32 32 32 33 35 33 34 35 36 37 37 37 32 30 34 37 36 36 37 39 41 44 49 52 51 53 54 57 68 68 67 66 66 66 65 64 63
32 31 30 30 31 32 32 32 33 32 31 33 35 37 37 35 33 35 35 32 34 36 36 37 38 39 43 45 48 50 52 52 54 54 60 67 67 67 66 66 66 65 63
31 31 30 30 31 32 33 33 33 32 32 32 32 34 36 38 39 38 38 37 36 34 36 38 39 41 40 44 46 50 51 51 54 55 59 66 66 66 67 67 66 65 64
31 30 30 31 31 32 33 34 34 34 34 34 34 36 36 37 39 39 38 38 36 36 36 38 40 39 42 45 47 48 50 52 54 55 58 65 64 65 66 67 67 66 65
32 31 31 31 32 32 33 34 34 33 34 35 35 36 36 36 38 41 41 41 39 36 36 39 40 41 42 45 47 48 51 53 53 54 57 64 64 64 66 66 66 66 66
31 31 32 31 31 33 33 32 33 34 35 36 35 37 37 38 39 41 41 41 42 41 38 40 41 42 43 44 45 46 51 52 54 53 56 63 64 64 65 65 65 65 64
30 30 30 31 32 32 31 31 31 33 34 34 35 36 37 38 39 40 41 42 42 43 41 42 42 43 43 45 45 47 51 52 53 54 59 63 62 63 64 64 64 64 63
29 29 29 30 30 31 31 31 32 32 33 34 35 36 37 37 38 40 41 41 42 43 43 41 42 42 43 45 46 47 51 53 54 56 62 63 62 62 62 63 62 62 61
26 28 29 29 29 31 31 32 33 34 34 35 36 36 37 38 38 39 40 41 43 44 45 44 43 46 46 48 48 50 51 52 52 56 63 63 62 62 62 61 60 59 58
25 27 27 28 30 31 32 33 33 34 35 36 37 38 38 39 39 40 41 42 44 45 44 44 44 46 46 48 49 48 49 52 54 61 63 62 62 62 61 60 59 57 56
26 26 26 29 30 30 30 31 34 36 37 38 39 39 40 42 44 43 41 43 44 44 44 44 46 47 47 48 47 50 50 51 56 61 62 62 62 61 61 60 58 56 54
26 27 28 28 29 29 35 37 38 36 38 38 39 39 40 40 41 44 45 45 44 45 46 46 48 48 47 46 48 49 49 49 56 62 60 60 61 60 60 58 57 55 54
26 27 27 28 28 29 37 37 38 35 36 35 36 37 37 37 41 42 44 45 44 49 50 49 49 49 47 49 50 51 51 50 57 60 60 58 60 58 57 56 55 54 54
27 27 27 28 29 30 37 38 39 35 34 36 37 38 38 39 41 41 40 42 45 46 48 50 52 51 49 52 53 52 53 52 59 59 58 56 57 55 55 55 54 54 54
27 27 27 28 28 28 36 40 38 34 35 36 37 38 39 40 42 42 41 44 45 44 48 51 52 55 54 54 54 54 53 55 55 56 56 55 53 52 53 53 53 53 52
27 28 28 28 31 31 36 39 36 34 34 36 38 39 41 37 41 43 42 46 43 44 47 48 49 55 54 54 55 54 55 55 55 54 55 51 52 50 47 51 52 50 50

GFSMA_sfc_dewp_015.txt.gz
Dewpoint
41 41 39 40 40 39 37 37 36 35 34 32 32 32 33 36 37 39 43 48 49 50 52 55 56 58 60 62 63 65 68 69 68 66 66 67 65 65 65 63 62 61 61
41 41 39 40 40 39 37 36 34 34 35 31 33 32 34 35 35 35 36 41 46 47 48 51 52 53 55 57 59 62 64 68 69 69 68 67 67 65 65 64 63 63 62
40 40 39 38 39 38 36 36 36 33 33 33 32 32 33 36 35 31 36 38 39 42 45 48 50 50 51 53 56 59 61 63 66 69 69 68 67 66 66 65 65 64 62
41 40 40 40 40 40 40 37 36 35 34 33 32 33 33 36 34 31 34 37 39 37 39 46 47 48 49 50 52 55 57 59 62 64 68 68 68 68 66 66 66 64 63
41 40 40 40 41 39 39 36 37 36 34 34 31 33 32 35 36 32 31 36 38 40 38 42 45 46 48 49 50 50 51 53 57 60 63 67 68 69 68 67 66 65 63
39 39 40 40 39 39 39 38 35 37 36 36 31 30 32 35 38 35 34 30 34 39 38 41 41 40 45 47 48 49 51 52 52 55 60 63 67 68 68 67 67 66 64
38 39 38 38 41 38 38 38 38 36 36 37 34 30 32 32 34 35 33 31 33 36 35 38 38 40 39 44 45 48 51 51 51 52 53 61 64 68 68 68 68 66 64
38 36 37 38 39 39 39 37 38 37 37 37 31 33 28 30 31 28 30 30 31 34 33 34 35 37 39 40 42 46 47 50 52 52 53 55 61 63 68 68 68 66 65
38 35 35 36 37 37 37 38 38 38 34 36 34 31 27 26 29 31 29 31 32 31 32 34 34 35 37 37 41 43 45 48 51 53 53 53 56 61 65 68 68 67 65
35 36 34 35 36 36 36 37 37 37 37 32 35 33 38 35 29 28 31 30 31 30 32 33 34 35 36 38 42 45 47 48 50 52 54 54 55 57 63 66 68 68 67
34 35 33 34 34 36 35 35 36 36 36 34 34 33 37 36 39 38 29 29 30 31 32 33 34 35 36 38 40 43 47 49 49 50 52 54 53 55 61 63 68 67 67
35 34 34 34 35 35 36 37 36 36 36 34 34 35 36 33 29 33 32 28 29 31 31 33 35 35 37 38 41 45 47 48 48 50 50 52 53 54 59 63 67 68 68
34 34 34 33 34 37 37 38 36 36 36 35 35 34 35 37 38 37 35 32 30 30 32 33 34 35 36 37 39 44 46 48 49 50 50 51 52 52 56 60 62 68 67
33 34 35 33 33 34 35 36 37 37 36 36 36 37 36 35 35 36 34 33 33 31 31 32 33 35 36 37 40 45 43 47 48 49 49 50 51 52 54 59 60 67 66
33 35 34 34 33 33 34 36 35 35 36 35 35 35 35 34 35 36 36 36 36 35 33 32 32 35 36 37 40 41 43 46 48 49 49 49 49 52 56 58 59 66 65
33 35 35 34 34 33 34 35 36 35 35 35 34 35 35 35 36 37 39 39 39 39 38 35 36 37 37 37 41 42 44 47 48 49 49 48 50 52 57 57 58 64 64
34 33 33 33 33 33 32 33 33 33 34 34 35 36 36 36 37 38 40 40 40 40 40 38 37 38 38 39 41 44 45 46 45 49 50 48 49 52 55 57 59 64 64
33 32 32 32 32 33 32 32 32 29 32 34 34 35 36 34 38 39 39 40 40 40 41 40 40 40 40 43 46 45 44 45 45 47 50 50 50 51 56 56 61 63 62
31 31 32 32 31 32 32 31 31 32 33 33 34 35 37 38 39 38 39 38 40 40 41 43 41 43 43 45 44 46 46 46 46 48 50 51 51 53 56 57 61 61 61
29 29 30 30 31 31 31 31 32 33 33 33 35 37 38 39 39 38 39 40 40 43 43 43 43 43 43 44 46 45 45 48 47 46 49 50 51 54 56 58 61 60 59
27 28 28 29 31 31 29 33 34 34 35 35 37 38 40 40 42 40 36 38 42 43 42 42 42 41 41 43 45 46 47 47 49 49 50 52 54 54 55 60 61 59 57
26 27 26 27 30 27 35 39 37 36 36 37 38 38 37 39 38 41 42 42 41 40 41 41 41 42 44 44 45 48 48 47 46 52 50 51 54 53 57 63 60 58 56
26 27 27 27 29 30 38 39 39 35 36 37 38 37 35 33 38 38 40 42 43 44 43 42 42 44 44 45 47 47 48 48 48 50 50 50 52 53 63 61 58 56 56
28 27 27 28 30 31 38 39 38 35 37 38 38 38 38 37 38 39 39 39 39 40 43 43 45 46 48 48 48 49 49 49 50 53 52 49 56 59 60 59 56 55 55
28 27 28 30 30 30 38 39 37 36 37 37 37 38 39 39 41 41 38 40 41 41 42 45 48 48 49 51 53 51 50 49 47 51 54 56 58 57 57 57 56 54 54
28 28 27 28 32 28 37 39 37 36 35 35 36 38 40 40 42 42 40 41 40 40 43 44 44 46 48 49 54 52 51 48 50 51 57 55 56 54 50 55 55 54 53

GFSMA_sfc_dewp_021.txt.gz
Dewpoint
37 37 37 37 37 36 34 34 33 32 30 27 26 26 26 27 30 35 46 47 49 51 53 55 55 56 57 58 61 63 64 65 68 69 68 68 67 66 66 66 65 64 62
38 38 37 38 37 35 34 32 31 32 31 27 29 28 29 29 30 32 35 45 45 45 49 50 51 52 53 54 55 58 59 60 63 66 68 69 68 68 67 67 65 65 63
38 38 37 37 35 34 30 31 28 30 32 29 28 29 31 30 31 28 33 37 42 45 44 46 48 49 50 51 52 53 54 55 56 61 64 66 69 69 68 68 66 66 64
40 38 38 37 37 37 36 35 34 34 33 31 29 30 29 30 29 27 33 36 39 38 41 42 43 45 47 49 50 50 50 51 53 55 56 59 64 68 68 69 68 66 66
40 39 39 39 39 39 37 36 36 34 34 34 32 27 29 30 31 27 29 36 39 41 41 40 39 43 42 46 48 50 50 51 52 52 53 55 57 63 67 68 68 67 66
41 41 42 41 39 40 39 38 35 34 34 33 28 25 29 30 33 33 30 29 35 38 41 42 44 39 39 41 44 48 50 52 52 52 52 52 54 56 61 66 67 68 68
42 44 43 41 43 42 40 39 36 36 36 34 32 33 31 28 26 30 32 29 34 33 35 40 41 39 37 40 42 43 47 50 51 52 53 53 53 54 56 59 63 66 68
42 41 42 43 42 43 42 40 43 38 35 34 30 31 32 30 29 27 29 28 27 31 32 31 31 35 40 40 45 41 45 46 50 52 53 54 54 54 55 55 56 62 66
43 41 41 40 41 42 42 43 43 45 38 36 30 30 29 29 28 28 28 28 30 31 30 32 32 34 34 36 43 45 46 44 48 51 53 53 54 54 55 55 55 57 64
41 40 39 39 39 41 40 42 39 41 41 36 35 29 27 27 27 26 27 29 29 26 30 35 32 32 33 37 43 47 45 44 46 49 51 52 54 54 55 55 56 55 55
41 40 37 38 39 40 39 39 38 36 38 36 37 34 33 32 29 30 29 30 30 29 30 31 33 34 34 38 40 43 47 44 46 48 49 51 53 54 54 55 56 55 55
41 39 38 38 39 40 40 40 39 38 36 34 35 35 34 32 30 30 29 27 28 29 30 32 34 36 38 39 41 47 45 44 45 46 47 49 52 53 54 54 55 55 55
40 40 39 38 39 42 42 42 41 39 37 38 36 33 34 34 33 31 30 30 29 30 31 33 33 35 34 37 39 47 46 44 45 46 47 48 50 51 52 53 54 54 54
40 41 40 38 37 39 40 40 41 41 39 38 40 38 37 34 34 35 34 32 30 31 32 32 34 35 36 36 41 47 39 47 48 47 46 47 48 49 52 53 53 53 53
40 41 40 39 37 38 39 40 39 38 36 36 37 38 37 35 35 35 34 33 32 30 31 31 33 35 36 38 41 38 37 45 44 48 48 47 47 49 51 52 53 52 53
42 41 41 39 39 37 38 39 39 36 36 37 36 35 34 34 34 36 36 35 34 34 34 35 37 37 37 35 39 39 38 46 47 46 48 49 47 49 50 51 52 51 52
41 40 39 39 38 36 35 35 34 34 34 35 37 36 34 34 35 35 36 36 37 37 37 38 38 38 36 36 37 39 41 40 41 45 47 50 50 49 50 50 51 52 51
41 39 38 37 36 35 34 33 33 31 32 34 34 34 33 29 35 36 36 37 38 38 38 37 37 38 38 38 39 40 38 38 42 44 47 48 50 51 50 51 51 51 52
38 37 38 36 35 35 34 32 31 30 30 30 32 31 32 31 30 33 36 37 39 37 38 38 37 39 39 40 39 39 39 40 41 46 48 49 49 51 52 52 52 52 52
36 36 36 35 35 34 33 32 31 30 29 28 27 31 29 29 31 35 36 37 36 38 38 37 38 38 39 40 41 40 42 43 43 43 47 48 49 50 50 52 52 52 51
34 34 33 34 34 33 30 33 33 32 30 28 30 28 32 34 38 39 38 38 39 38 39 38 38 38 38 39 39 42 43 43 43 45 45 45 47 48 50 50 51 51 51
34 34 32 32 33 28 42 43 38 33 32 30 31 29 29 38 39 41 41 41 40 39 38 37 36 36 37 39 40 41 43 43 42 45 47 46 49 48 50 51 51 52 52
35 34 32 32 32 32 46 45 45 34 33 31 30 33 32 30 36 33 37 39 39 41 41 39 38 37 39 41 43 43 44 44 44 46 47 45 49 49 51 52 52 52 52
36 34 32 32 34 33 45 44 42 35 33 34 34 35 35 34 35 35 36 36 37 38 39 37 38 40 43 45 46 47 47 46 47 48 49 45 49 49 52 52 52 53 53
36 33 32 33 33 35 45 45 42 33 33 35 34 34 36 35 37 38 37 39 38 38 39 44 43 46 47 47 48 47 45 45 47 48 50 49 50 50 52 52 54 55 55
35 33 31 30 36 32 45 46 43 33 32 32 32 33 41 37 39 39 38 39 38 36 38 39 40 43 44 45 47 47 47 48 48 47 50 49 50 50 50 54 56 56 55

GFSMA_sfc_dewp_024.txt.gz
Dewpoint
41 41 41 42 42 38 37 36 36 33 29 27 27 26 27 29 31 47 48 49 49 52 54 55 55 56 57 58 61 62 62 63 65 68 69 69 67 66 66 66 66 65 64
41 41 40 41 40 38 37 36 34 33 31 30 29 27 28 30 30 33 46 47 47 47 48 50 51 52 53 54 54 56 56 57 60 63 66 68 69 68 68 68 66 65 65
41 41 40 40 39 37 33 32 27 30 32 30 30 28 30 29 31 30 37 45 46 46 46 45 47 48 50 51 51 51 52 53 55 56 58 61 65 68 68 68 67 66 66
43 41 42 41 41 39 37 38 37 36 35 33 33 32 31 31 30 28 35 38 40 41 46 42 42 43 45 47 49 50 50 52 52 53 54 56 58 62 67 68 68 68 67
43 43 43 43 41 41 40 39 38 38 37 37 34 31 32 33 31 29 34 36 39 40 41 43 38 42 43 42 45 47 49 51 52 53 53 53 54 58 59 65 68 68 68
43 43 44 43 42 43 41 40 37 37 37 37 31 29 29 33 33 34 30 34 38 39 40 39 40 40 45 39 41 44 46 49 51 52 53 54 54 54 57 59 62 64 68
43 43 45 43 43 43 42 39 37 36 36 35 34 35 35 30 31 33 34 32 33 35 38 38 41 40 37 39 40 41 43 45 48 51 53 54 54 54 54 55 57 60 63
43 43 44 44 43 44 41 40 38 38 38 37 32 33 31 33 30 27 33 29 27 32 31 31 32 33 36 39 40 43 43 43 45 48 51 53 54 54 55 55 56 56 58
43 41 43 43 42 43 43 41 41 40 37 37 32 32 30 28 30 32 27 30 29 31 32 32 30 32 32 35 41 44 48 43 44 47 49 52 53 54 55 55 55 56 56
42 42 41 41 41 43 42 42 42 42 41 38 35 32 30 28 27 25 31 30 30 28 29 32 33 32 31 34 40 47 46 46 43 45 48 50 52 52 53 54 55 55 56
41 41 40 40 40 42 41 41 39 40 40 38 37 35 32 32 29 30 29 31 31 30 32 30 31 32 33 35 38 41 45 47 45 45 46 48 50 51 52 53 54 55 56
42 41 39 39 39 40 40 41 39 38 39 37 37 36 36 34 32 32 31 29 29 30 30 31 33 34 35 37 41 48 50 47 44 44 45 47 49 50 51 52 54 55 55
42 41 39 38 39 40 41 41 39 38 37 36 34 36 35 35 34 33 31 31 30 30 31 32 32 34 35 36 38 48 50 47 46 44 45 46 46 48 49 49 53 54 55
42 41 39 37 37 40 41 41 41 40 37 38 36 35 37 36 36 35 34 32 30 30 31 31 32 35 35 37 41 49 41 46 47 48 46 44 45 47 48 49 52 54 54
43 41 39 37 37 38 39 40 40 39 37 37 38 38 37 36 36 35 35 34 32 30 29 31 32 34 37 37 40 40 38 43 44 48 50 48 46 46 47 48 51 53 54
42 40 40 38 37 37 38 39 39 38 36 38 38 37 36 36 35 36 36 35 34 33 31 34 36 37 37 37 39 39 37 46 45 45 48 48 49 47 47 48 51 52 53
43 40 39 38 37 37 37 38 37 37 36 36 35 36 36 35 35 35 35 35 34 35 35 36 38 38 37 36 37 37 40 39 40 44 45 48 49 49 49 50 50 51 52
43 41 39 38 37 36 37 36 36 34 35 35 36 35 34 33 33 35 35 34 35 37 37 36 36 36 37 37 36 37 39 38 38 43 45 46 49 50 51 51 51 51 52
41 40 39 38 37 36 35 35 34 33 33 34 35 35 34 33 33 33 34 35 37 38 37 37 37 37 38 37 36 38 38 38 38 44 46 47 48 48 51 51 52 52 52
39 39 38 38 37 35 34 34 33 32 32 32 34 33 32 33 31 30 34 35 36 37 37 37 38 37 37 38 38 38 38 40 41 41 44 45 47 48 50 51 52 52 52
37 38 37 37 36 35 33 32 32 32 30 30 31 31 33 34 36 36 37 38 38 38 38 37 37 37 35 35 35 37 39 40 40 41 42 43 44 45 46 48 51 52 52
36 37 36 36 35 33 43 44 37 32 31 30 31 30 29 40 36 39 41 42 41 38 37 37 38 36 35 36 37 38 41 42 40 42 45 45 45 45 47 49 50 51 52
36 36 34 34 34 33 46 47 45 32 32 30 31 32 30 30 41 35 36 38 39 40 40 38 37 36 36 38 40 41 42 43 44 46 46 45 47 47 47 50 52 52 52
36 36 33 33 33 32 47 47 46 33 33 32 31 32 34 33 35 36 35 35 37 37 38 38 37 38 39 40 43 45 45 45 46 46 48 44 47 46 48 50 52 52 52
42 36 33 32 32 31 47 47 40 33 33 33 34 34 35 35 37 37 36 37 38 39 41 41 42 43 44 45 46 46 45 44 42 44 48 47 47 46 48 49 51 52 51
45 36 32 32 38 38 47 47 39 33 32 34 34 34 44 36 38 39 37 38 38 39 37 37 38 41 43 44 46 46 45 44 44 46 50 47 48 48 47 50 51 51 51

GFSMA_sfc_dewp_030.txt.gz
Dewpoint
53 51 49 47 44 42 41 38 35 34 28 26 27 27 39 49 49 50 50 55 57 57 56 56 57 58 58 60 60 60 60 61 63 65 67 69 69 66 66 67 67 66 65
51 49 46 46 45 41 37 35 34 31 28 27 27 28 31 46 46 46 47 48 51 51 50 50 51 53 54 55 55 55 55 57 58 60 60 61 65 68 69 68 67 67 67
47 46 45 43 41 39 36 34 32 32 30 30 27 27 29 31 42 43 45 45 47 49 47 46 46 49 50 50 50 50 51 52 53 54 55 57 57 61 63 67 68 68 67
45 42 42 41 41 38 37 35 33 33 32 30 29 29 29 30 29 40 44 45 45 45 47 45 44 44 45 45 47 48 50 51 52 53 53 54 54 56 59 62 65 68 67
44 42 41 41 41 39 37 35 34 33 33 33 32 32 31 30 30 31 40 42 43 45 45 46 45 44 45 42 44 44 47 49 50 52 53 53 54 55 55 56 60 62 64
43 41 42 41 40 40 38 37 34 36 35 34 33 31 29 31 33 31 33 37 39 41 43 40 40 39 45 45 42 41 43 46 44 48 51 53 54 54 55 55 55 57 60
43 41 43 41 41 40 38 37 36 34 35 35 32 31 32 32 30 32 32 34 36 38 39 39 39 38 39 47 41 40 42 43 42 45 47 50 52 54 54 55 55 55 57
42 42 42 41 41 41 38 37 36 36 35 35 31 31 27 29 31 30 32 32 32 37 37 37 37 36 38 38 40 45 43 41 42 44 47 48 50 52 53 54 55 55 56
42 42 42 42 41 41 39 38 37 36 35 36 33 30 27 27 30 31 28 32 30 33 36 34 33 33 34 35 41 46 50 44 43 45 45 47 49 50 51 52 53 54 55
42 43 42 42 41 41 40 39 38 37 37 35 35 33 31 30 27 26 29 30 29 29 30 33 32 30 31 33 38 43 46 46 45 43 45 46 48 49 51 51 52 52 53
46 42 42 41 41 41 40 39 39 38 37 36 35 33 29 29 28 27 26 28 31 31 31 30 31 30 30 32 35 39 48 48 47 44 45 46 47 48 50 51 51 52 52
48 45 42 41 41 41 41 40 39 38 38 37 36 33 32 31 30 29 26 28 29 30 30 30 30 31 34 35 38 43 46 48 48 47 46 46 46 47 48 50 50 50 51
41 45 44 42 42 42 41 41 40 39 38 38 36 35 34 33 34 32 30 29 28 30 30 31 31 32 32 35 36 44 47 45 45 45 46 46 46 47 47 48 48 49 50
41 41 44 44 42 41 42 41 41 40 39 39 37 36 36 35 35 34 32 31 29 30 31 29 32 32 33 35 38 46 42 46 46 45 45 45 45 46 46 47 47 48 49
42 39 40 44 43 41 41 41 41 40 40 39 38 37 36 36 36 35 34 33 30 27 28 30 30 32 34 36 39 41 40 43 45 44 45 45 45 45 46 46 46 47 47
40 40 40 41 44 42 41 41 41 40 39 39 39 36 35 36 36 36 35 34 32 30 28 31 32 34 35 36 39 41 40 45 46 45 45 47 45 45 46 46 46 47 47
42 41 40 39 43 43 40 40 40 40 39 38 37 36 35 35 36 36 35 34 34 33 31 31 34 35 36 37 37 37 39 38 38 44 44 45 47 47 46 46 47 47 47
42 42 41 41 42 43 41 39 39 39 38 37 37 36 35 35 35 35 36 34 34 34 33 31 33 36 36 36 37 37 37 37 37 42 44 45 45 48 49 49 51 50 49
42 42 42 42 43 44 42 40 41 39 38 36 36 36 35 35 34 35 35 34 34 34 34 34 34 37 37 37 37 37 37 38 38 42 44 45 46 46 49 50 50 50 51
42 42 42 42 44 44 44 43 40 39 38 36 36 36 35 35 34 34 34 33 33 34 36 36 36 37 37 37 37 37 37 37 37 37 41 43 45 46 47 48 50 50 50
43 43 44 45 45 45 45 42 41 39 37 36 36 35 36 38 42 38 34 33 34 35 37 37 37 37 36 37 36 37 36 37 37 38 38 39 40 41 43 46 47 49 49
42 43 43 44 45 46 48 50 44 38 37 35 35 35 35 42 43 45 43 41 39 37 37 37 37 36 36 37 37 37 37 37 36 39 38 39 41 42 43 43 46 48 49
41 41 42 44 44 45 49 50 50 40 37 35 35 35 33 36 42 39 43 44 44 46 44 38 37 36 36 37 37 37 37 38 38 40 42 43 45 45 46 45 48 49 50
39 40 41 43 43 44 48 50 50 43 36 34 34 34 33 35 40 36 34 36 35 36 37 37 37 37 38 38 38 39 40 42 43 44 45 43 45 45 46 46 49 49 50
38 39 41 42 42 42 46 49 49 43 36 33 32 33 32 34 42 42 35 34 34 36 40 42 43 44 44 43 43 41 41 41 41 43 45 45 45 45 46 47 48 50 49
38 39 39 42 43 42 47 48 50 40 33 32 31 32 39 35 43 44 35 35 35 36 37 39 40 40 40 40 43 41 42 42 42 41 45 44 44 45 44 48 48 49 49

GFSMA_sfc_dewp_033.txt.gz
Dewpoint
56 55 53 51 46 43 44 40 36 34 29 26 28 37 51 51 51 52 52 57 59 60 58 58 58 59 59 61 60 60 61 62 64 66 67 68 68 66 67 67 67 66 65
56 55 51 47 45 42 40 37 35 32 29 27 27 28 44 48 48 47 47 49 54 54 53 52 53 54 56 56 55 55 56 57 58 59 60 61 63 66 68 69 68 68 67
54 54 50 45 44 43 39 35 33 32 30 29 27 27 31 44 45 44 45 46 47 51 48 47 49 50 50 50 50 50 51 53 54 54 55 56 57 59 62 64 68 68 68
52 51 49 46 44 42 39 36 34 33 32 30 28 29 28 30 36 42 43 45 46 45 47 46 46 46 47 46 48 48 49 50 51 52 53 54 55 55 56 60 62 64 67
49 48 47 46 43 41 38 36 34 33 32 32 31 30 30 30 30 33 41 43 44 46 45 48 46 45 46 44 45 45 47 49 48 50 52 53 53 54 55 55 57 60 62
47 45 44 43 42 41 38 36 33 34 33 33 32 32 31 31 32 31 35 40 42 44 44 42 43 43 46 48 46 44 44 47 45 46 50 51 53 54 54 54 55 56 58
44 44 44 42 42 40 38 36 35 33 35 35 33 32 32 32 29 32 32 34 38 39 40 41 39 38 38 48 49 43 43 46 45 43 47 47 50 52 53 54 54 55 55
42 43 43 42 41 41 38 37 36 35 35 35 32 30 27 27 32 31 32 31 33 36 38 37 37 36 37 38 40 46 44 42 43 43 45 46 48 51 51 52 53 54 55
46 43 42 42 42 41 40 38 36 36 35 35 33 31 26 25 29 30 29 32 32 33 36 37 36 36 35 37 41 44 49 46 44 44 46 46 48 50 50 51 52 53 53
46 46 43 42 42 42 41 39 38 37 36 35 35 34 31 29 27 25 29 29 31 30 31 35 34 33 32 33 38 42 47 47 45 44 45 47 48 49 49 51 52 52 53
43 46 45 43 42 42 41 40 38 37 37 36 35 33 30 29 28 27 25 28 30 30 30 31 33 32 31 32 34 37 47 48 48 46 45 46 48 48 49 50 51 51 52
42 44 45 45 43 42 42 41 39 38 37 36 36 34 33 31 29 28 25 26 29 30 31 31 30 30 32 34 37 42 45 47 48 48 47 47 48 48 49 50 50 51 50
42 42 42 44 44 44 43 42 40 39 38 37 35 35 34 33 33 31 28 27 28 30 30 31 31 31 32 33 35 43 46 47 46 46 47 48 47 47 48 49 49 50 50
42 43 42 41 42 43 44 42 42 41 39 39 37 36 36 34 34 33 31 29 28 29 30 29 31 32 33 35 37 44 44 47 46 46 46 46 46 47 47 48 48 48 49
43 43 41 40 40 41 43 43 42 41 40 39 39 37 36 36 35 34 33 32 29 25 28 29 29 31 32 35 38 39 39 44 46 45 45 45 46 47 47 47 48 48 48
43 42 42 41 41 40 41 44 43 42 41 41 40 38 37 37 35 35 35 33 31 30 25 29 30 32 33 34 37 41 41 46 47 46 46 48 46 47 46 46 47 47 48
42 42 42 42 41 41 43 43 42 42 41 40 40 39 37 36 37 36 35 34 33 32 29 30 32 33 33 34 36 38 39 38 39 45 45 45 46 46 46 47 47 47 47
40 42 42 42 42 42 42 42 42 41 41 41 40 39 38 36 35 36 35 34 33 33 32 29 32 34 35 36 36 36 37 38 38 41 44 44 45 45 46 47 48 49 49
40 41 41 42 42 42 43 43 44 42 42 42 41 39 38 36 35 35 35 34 34 33 33 32 32 35 36 37 37 37 37 37 37 42 45 45 45 46 47 49 50 50 50
37 39 41 42 42 42 42 43 42 43 43 43 43 42 39 36 35 34 34 34 33 34 34 34 34 35 36 37 37 36 37 38 37 37 40 42 44 45 46 46 47 50 50
34 40 43 43 43 43 43 43 43 43 44 44 45 43 39 39 42 39 34 34 33 33 34 35 35 36 36 36 36 37 36 37 37 38 38 38 39 40 41 44 46 49 49
43 43 43 42 41 41 44 46 46 43 45 45 44 43 37 43 43 45 44 42 37 33 34 35 36 36 36 36 37 37 37 36 35 37 38 38 40 40 41 41 45 47 48
38 40 40 40 39 39 44 46 46 43 44 47 44 42 36 37 43 41 45 45 43 43 39 36 36 37 36 37 37 36 37 37 37 38 39 39 40 41 42 42 46 48 49
37 39 39 39 39 40 44 45 46 43 45 48 41 39 36 36 41 41 41 40 40 41 41 42 38 38 37 37 38 38 39 39 40 41 42 41 43 44 44 45 48 49 49
37 39 38 38 39 39 43 44 45 44 47 46 41 38 36 37 44 45 38 37 36 36 41 42 43 44 44 45 44 40 40 38 37 40 43 43 44 44 46 47 47 49 49
37 36 34 36 40 40 42 44 44 44 46 44 42 41 42 38 47 45 35 35 34 34 36 37 38 41 42 39 43 40 39 38 39 40 43 43 44 44 43 47 48 48 49

GFSMA_sfc_dewp_036.txt.gz
Dewpoint
56 56 55 54 51 46 44 40 38 34 33 27 30 42 52 52 52 54 54 59 60 61 60 59 59 60 60 62 60 61 62 63 65 65 66 68 68 67 67 67 67 67 66
56 56 54 52 49 43 42 41 37 33 32 27 28 29 47 50 50 50 49 50 57 58 56 55 55 56 57 57 56 56 57 59 59 60 61 61 63 65 67 68 68 68 67
57 55 54 51 47 43 39 37 34 32 31 29 27 28 34 47 47 45 46 47 49 54 52 51 51 52 52 52 51 51 52 54 55 55 56 57 58 59 62 64 66 68 68
56 55 54 53 47 44 41 37 35 34 32 30 29 29 28 32 42 42 43 44 46 47 49 49 47 48 50 49 49 49 50 50 52 52 53 54 55 56 56 58 61 63 65
57 56 53 52 48 45 41 38 36 34 33 32 31 30 30 30 31 34 41 42 45 48 46 49 48 47 47 47 47 48 48 49 48 50 51 52 53 54 55 55 57 59 61
54 51 50 48 48 44 41 38 35 34 33 33 31 31 31 32 32 32 32 40 43 45 45 45 46 46 48 49 47 48 47 48 47 46 49 49 51 53 53 54 55 55 57
44 51 50 45 44 44 43 39 35 33 34 33 32 32 32 32 31 31 32 34 40 41 43 43 42 41 41 47 50 49 47 47 50 45 46 47 49 51 52 53 54 54 55
46 43 47 50 45 43 40 39 36 36 34 35 32 31 29 29 30 32 31 32 33 38 39 39 39 38 38 39 45 50 47 45 46 45 46 48 47 49 51 52 52 53 54
44 45 44 44 45 43 42 39 37 36 35 36 33 32 28 27 27 31 31 32 32 33 36 37 37 37 37 38 42 45 48 47 45 45 47 47 48 49 50 51 52 53 53
42 43 45 44 43 43 42 41 39 38 37 36 36 34 30 28 25 25 29 30 31 31 32 35 37 36 36 37 40 43 45 48 47 46 45 47 48 50 50 50 52 52 52
41 42 43 44 43 43 43 42 40 38 38 36 36 35 32 30 28 27 25 27 30 31 32 32 35 35 34 33 35 38 46 48 48 47 45 46 47 48 50 50 50 52 52
41 41 42 43 43 43 43 43 41 39 38 37 37 36 34 33 29 28 26 26 28 30 31 32 32 33 34 34 36 41 45 47 49 48 48 48 48 49 50 51 51 51 51
39 40 41 42 41 42 43 43 43 41 39 38 37 37 35 34 34 31 29 27 27 29 31 32 32 32 32 34 36 43 46 47 47 48 48 49 49 49 50 50 50 51 51
39 40 42 43 41 41 41 43 44 43 41 40 38 37 38 36 34 33 31 29 27 28 30 30 32 32 32 34 37 43 43 47 48 48 47 47 47 47 48 49 49 50 50
39 40 42 42 41 41 41 41 43 43 43 42 41 39 37 38 36 34 33 31 29 26 26 29 30 31 33 34 40 41 41 43 46 46 47 46 46 47 48 48 49 49 49
38 38 41 42 42 41 41 41 43 44 43 43 42 40 39 38 37 36 34 32 31 30 27 30 31 32 32 33 38 40 40 45 46 47 47 49 47 47 47 48 48 48 48
36 38 40 42 42 42 41 42 42 43 43 42 42 41 40 39 38 37 35 33 32 31 29 29 30 31 33 33 35 38 41 41 42 47 46 46 46 47 47 47 47 48 48
34 36 41 41 42 42 42 42 41 42 42 42 42 41 40 39 38 37 36 33 32 32 32 29 31 32 32 34 34 35 37 37 39 42 45 45 45 45 46 46 48 48 49
31 36 38 39 41 42 42 42 42 42 42 42 42 42 41 41 41 38 37 35 34 32 32 32 31 33 34 35 36 37 37 37 37 42 44 45 46 46 46 47 49 50 50
32 35 35 38 40 42 42 42 42 42 42 42 43 43 43 41 42 41 36 36 34 34 33 33 32 33 34 36 37 36 36 37 37 38 41 42 44 45 45 45 46 48 49
33 34 35 39 42 42 42 41 42 42 42 43 44 44 43 45 47 43 39 36 34 33 33 33 33 34 35 35 35 36 36 37 37 38 38 38 39 40 40 43 44 48 49
33 35 41 40 39 41 43 42 40 38 41 43 43 44 45 47 47 50 49 45 38 33 32 33 34 33 34 35 36 36 36 36 35 39 38 37 39 39 40 41 44 45 46
34 37 38 38 38 40 43 42 41 38 39 39 41 42 44 44 47 46 49 48 44 43 39 33 33 33 34 36 37 36 36 36 37 38 38 38 39 39 40 40 44 45 46
35 36 36 37 38 39 42 40 41 40 39 41 42 42 43 44 42 45 45 42 40 40 39 36 34 35 36 38 38 37 38 38 39 40 40 39 39 40 42 43 45 47 48
34 35 36 37 38 37 40 40 40 40 41 42 43 42 44 44 44 47 44 41 40 40 44 44 41 43 44 43 41 40 40 39 38 37 39 40 40 42 45 46 46 48 49
33 35 36 37 37 33 37 40 41 41 41 42 42 42 46 44 46 48 44 40 39 37 39 39 40 42 42 41 43 41 39 38 37 37 41 41 43 44 43 47 47 47 48